Regional Weather Roundup
Issued by NWS

Home | Current Version | Previous Version | Graphics & Text | Print | Product List | Glossary On
Versions: 1 2 3 4 5 6 7 8 9 10 11 12 13 14 15 16 17 18 19 20 21 22 23 24 25 26 27 28 29 30 31 32 33 34 35 36 37 38 39 40 41 42 43 44 45 46 47 48 49 50
000
ASUS45 KTFX 200710
RWRMT
MONTANA REGIONAL WEATHER ROUNDUP
NATIONAL WEATHER SERVICE GREAT FALLS MT
1200 AM MST SAT JAN 20 2018

NOTE: "FAIR" INDICATES FEW OR NO CLOUDS BELOW 12000 FEET WITH NO
SIGNIFICANT WEATHER AND/OR OBSTRUCTIONS TO VISIBILITY.

MTZ001>007-043-200800-
WEST OF THE DIVIDE

CITY           SKY/WX    TMP DP  RH WIND       PRES   REMARKS
KALISPELL      CLOUDY    32  26  78 S6        29.91R WCI  26
MISSOULA       CLOUDY    33  24  69 NE3       29.95S
BUTTE          FAIR       3  -1  83 SE3       29.89R
MULLAN PASS    MIX PCPN  21  20  96 VRB5      29.83S
ANACONDA         N/A     21  12  68 W6        29.90R WCI  14
DEER LODGE       N/A     19  18  93 NW3       29.92R
EUREKA           N/A     36  21  55 MISG      29.89S
HAMILTON         N/A     28  21  74 S3        29.96
PLAINS           N/A     31  24  75 CALM      29.95S
RONAN            N/A     32  28  86 SE8       29.95R WCI  25
$$

MTZ008-052>055-200800-
SOUTHWEST MONTANA

CITY           SKY/WX    TMP DP  RH WIND       PRES   REMARKS
BOZEMAN        FAIR      17  14  88 S5        29.89S
DILLON         FAIR      14  12  92 S13       29.88R WCI   0
ENNIS          CLEAR     19  14  79 SE3       29.92S
W YELLOWSTONE  MIX PCPN  23  21  93 CALM      29.83R
THREE FORKS      N/A     23  21  92 CALM      29.89S
TWIN BRIDGES     N/A     19  11  71 CALM      29.90R
$$

MTZ009-010-012-014-046-048-049-054-200800-
EAST SLOPES AND CENTRAL MONTANA

CITY           SKY/WX    TMP DP  RH WIND       PRES   REMARKS
CUT BANK       FAIR      28  19  69 W20       29.74R WCI  15
GREAT FALLS    FAIR      27  18  69 SW14      29.80R WCI  16
MALMSTROM AFB  FAIR      29  20  68 SW17      29.81R WCI  17
HELENA         FAIR      30  20  66 W10       29.88R WCI  21
AUGUSTA        FAIR      29  16  58 W21G29    29.77R WCI  16
BOWMANS CRNR   FAIR      25  17  73 SW14      29.79R WCI  13
CHOTEAU          N/A     32  14  47 SW8       29.79R WCI  25
FAIRFIELD      FAIR      30  17  58 SW14      29.78R WCI  19
POWER          FAIR      20  14  79 SW10      29.78R WCI   8
RAYNESFORD     FAIR      30  16  56 SW12      29.80R WCI  20
ULM            FAIR      30  19  63 SW13      29.82S WCI  20
WHITE SULPHUR    N/A     25  14  63 VRB7      29.83S WCI  17
$$

MTZ011-013-016-021-045-047-050-051-200800-
NORTH CENTRAL MONTANA

CITY           SKY/WX    TMP DP  RH WIND       PRES   REMARKS
HAVRE          FAIR      28  21  75 SW21      29.76R WCI  15
LEWISTOWN      FAIR      25  16  68 SW13      29.81R WCI  14
N BAR RANCH    FAIR      28  12  50 W10       29.80S WCI  19
CHINOOK          N/A     34  21  60 SW16G22   29.75S WCI  23
DENTON         FAIR      27  18  70 MISG      29.77R
GEYSER         FAIR      27  17  67 W14       29.79R WCI  16
GRASS RANGE    FAIR      29  19  64 W17       29.77R WCI  17
STANFORD       FAIR      29  15  57 W21       29.78R WCI  16
WINIFRED       FAIR      30  20  66 SW17      29.79R WCI  18
$$

MTZ017>020-022>027-061-062-200800-
NORTHEAST MONTANA

CITY           SKY/WX    TMP DP  RH WIND       PRES   REMARKS
GLASGOW        FAIR      24  17  74 W3        29.75R
GLENDIVE       MOCLDY    31  28  89 SW6       29.78R WCI  25
JORDAN           N/A     24  19  81 W8        29.77S WCI  15
MALTA          CLEAR     12  10  92 W6        29.76R WCI   3
SIDNEY         FAIR      34  29  82 SW12      29.76R WCI  25
WOLF POINT     FAIR      26  22  84 W6        29.76R WCI  19
PLENTYWOOD       N/A     28  21  74 CALM      29.70S
POPLAR           N/A     28  25  86 W7        29.76S WCI  21
SCOBEY           N/A     20  11  68 CALM      29.71R
$$

MTZ028>42-056>058-200800-
SOUTHCENTRAL AND SOUTHEAST MONTANA

CITY           SKY/WX    TMP DP  RH WIND       PRES   REMARKS
BAKER          CLOUDY    35  34  96 W12       29.79R WCI  27
BILLINGS       CLOUDY    33  28  81 SW9       29.83S WCI  25
LIVINGSTON     FAIR      24  20  84 N13       29.85R WCI  12
MILES CITY     MOCLDY    34  32  92 W9        29.81R WCI  27
BIG TIMBER     PTCLDY    28  21  74 W21       29.84S WCI  15
EKALAKA          N/A     34  30  85 W10       29.79R WCI  26
FORSYTH          N/A     37  30  75 SW6       29.82R
HARLOWTON      FAIR      25  17  71 W21       29.80S WCI  10
LAUREL           N/A     32  28  86 CALM      29.86R
$$

REGIONAL REPORTS...DAKOTAS

CITY           SKY/WX    TMP DP  RH WIND       PRES   REMARKS
WILLISTON      FAIR      33  27  78 W9        29.73R WCI  25
MINOT          FAIR      32  24  72 SW13      29.67F WCI  22
DICKINSON      CLOUDY    34  31  88 W13       29.74R WCI  25
BEACH          CLOUDY    32  32 100 SW9       29.80S WCI  24
CROSBY         FAIR      25  21  86 SW12      29.69R WCI  14
TIOGA          FAIR      28  28 100 W10       29.71R WCI  19
WATFORD CITY   FAIR      32  28  86 SW8       29.74R WCI  25
BISMARCK       CLOUDY    36  31  82 W9        29.76S WCI  29
GRAND FORKS    FAIR      31  27  85 W13       29.68R WCI  21
FARGO          FAIR      27  24  89 W7        29.72R WCI  19
BUFFALO SD       N/A     35  34  96 SW3       29.73R
RAPID CITY     CLOUDY    34  31  88 N6        29.80S WCI  29
$$

REGIONAL REPORTS...WYOMING/IDAHO/WASHINGTON

CITY           SKY/WX    TMP DP  RH WIND       PRES   REMARKS
GILLETTE       LGT SNOW  33  32  96 N5        29.80S VSB 1
SHERIDAN       LGT SNOW  33  32  96 NW9       29.84S FOG     WCI  25
BUFFALO WY     LGT SNOW  31  28  89 N14       29.81R VSB 1   WCI  21
CODY           FLURRIES  29  27  92 NE3       29.84R
YELLOWSTONE LA   N/A     18  16  92 CALM      29.82R
IDAHO FALLS    CLOUDY    30  27  88 SW13      29.92R WCI  20
SALMON         CLOUDY    25  21  85 CALM      29.98R
BOISE          FAIR      30  25  81 SE3       30.01R
SPOKANE        FAIR      32  30  92 S10       29.93R WCI  24
$$

REGIONAL REPORTS...ALBERTA

CITY           SKY/WX    TMP DP  RH WIND       PRES   REMARKS
CALGARY        CLEAR     32  10  40 W15G21    29.63R WCI  22
CARDSTON         N/A     30  18  59 W10         N/A  WCI  21
EDMONTON       PTCLDY    25  21  86 NW2       29.63R
FORT MCMURRAY  FLURRIES  18  14  86 NW6       29.65R WCI   9
HIGH LEVEL     CLOUDY    18  14  86 NW9       29.69S WCI   6
LETHBRIDGE     PTCLDY    34  19  55 W26G32    29.70R WCI  21
LLOYDMINSTER   FLURRIES  28  23  80 W13       29.55R WCI  18
MEDICINE HAT   CLEAR     30  23  74 W14G20    29.69R WCI  20
MILK RIVER       N/A     23  18  80 W12         N/A  WCI  12
PEACE RIVER    PTCLDY    10   7  85 NW7       29.65R WCI   0
PINCHER CREEK  CLOUDY    30  18  59 W23G29    29.73R WCI  17
WATERTON GATE    N/A     30  16  55 SW22G36     N/A  WCI  17
$$

REGIONAL REPORTS...SASKATCHEWAN

CITY           SKY/WX    TMP DP  RH WIND       PRES   REMARKS
CORONACH         N/A     23  19  86 E2          N/A
CYPRESS HILLS    N/A     28  12  50 NW10        N/A  WCI  19
ESTEVAN        PTCLDY    19  16  86 SW8       29.68R WCI   9
MOOSE JAW        N/A     27  21  80 W12         N/A  WCI  16
PRINCE ALBERT  CLOUDY    30  23  74 W6        29.56R WCI  24
REGINA         CLOUDY    27  23  86 W3        29.63R
ROCKGLEN         N/A     21  18  86 W13         N/A  WCI   9
SASKATOON      CLOUDY    25  21  86 SW8       29.59R WCI  16
SWIFT CURRENT  PTCLDY    27  21  80 W14       29.63R WCI  15
VAL MARIE        N/A     19  16  86 S2          N/A
$$



USA.gov is the U.S. government's official web portal to all federal, state and local government web resources and services.